Location: Ottawa
(45.4170°N, 75.7000°W)
Time: 10:00:21
(UTC-04:00)

Daily predictions for brighter satellites

Satellite Brightness Start Highest point End
(mag) Time Altitude Azimuth Time Altitude Azimuth Time Altitude Azimuth
Cosmos 1953 3.9 19:17:43 10° ESE 19:19:59 15° E 19:22:14 10° NE
SAR-Lupe-1 4.0 19:17:44 10° SSE 19:21:15 66° ENE 19:24:48 10° N
Cosmos 1464 Rocket 4.5 19:16:50 10° SSE 19:22:29 37° E 19:28:06 10° NNE
Cosmos 1812 Rocket 3.7 19:21:34 10° SSW 19:25:54 79° W 19:30:17 10° N
Cosmos 1624 Rocket 4.0 19:21:22 10° NNW 19:26:37 77° ENE 19:31:48 10° SSE
Aureole 2 Rocket 3.6 19:22:41 10° SSE 19:26:38 34° ESE 19:30:33 10° NE
Cosmos 1766 Rocket 4.4 19:24:13 10° NNE 19:28:06 30° ENE 19:31:56 10° SE
COSMOS 2455 3.9 19:25:19 10° SW 19:31:07 48° NW 19:36:59 10° NNE
ATLAS CENTAUR R/B 4.0 19:28:16 10° S 19:33:18 46° ESE 19:47:55 10° NE
Meteor 1-22 Rocket 4.1 19:30:36 10° S 19:35:51 58° E 19:41:03 10° NNE
Cosmos 1805 4.5 19:34:15 10° SE 19:37:17 22° E 19:40:20 10° NE
USA 215 3.4 19:31:12 10° ENE 19:37:35 53° SE 19:43:55 10° SSW
Cosmos 2219 Rocket 3.1 19:32:49 10° SW 19:38:18 52° WNW 19:43:51 10° NNE
Cosmos 1441 Rocket 4.3 19:34:54 10° NNW 19:38:32 48° W 19:42:08 10° S
Cosmos 2233 Rocket 4.3 19:33:17 10° SSW 19:39:35 79° W 19:45:58 10° N
Cosmos 2278 Rocket 3.2 19:34:07 10° NW 19:39:35 51° WSW 19:45:02 10° S
HJ-1C 3.5 19:36:50 10° SSE 19:40:06 51° ENE 19:43:24 10° N
H-2A R/B 4.1 19:37:16 10° ESE 19:40:21 23° ENE 19:43:26 10° NNE
Meteor 1-29 3.8 19:39:14 10° NNE 19:42:24 30° E 19:45:31 10° SSE
Timation 1 Rocket 4.4 19:37:15 10° NNW 19:43:14 68° ENE 19:49:09 10° SE
Cosmos 2297 3.7 19:37:36 10° NNW 19:43:20 88° ENE 19:48:58 10° SSE
Meteor 1-24 Rocket 3.8 19:39:22 10° N 19:45:07 88° W 19:50:37 10° S
Meteor 1-28 Rocket 3.1 19:41:32 10° NNE 19:45:17 80° E 19:49:00 10° S
METEOR-M 4.1 19:40:05 10° SSE 19:45:25 74° ENE 19:50:47 10° N
Cosmos 1378 3.0 19:42:56 10° N 19:46:41 76° E 19:50:24 10° SSE
Cosmos 1707 4.1 19:45:38 10° NNW 19:49:17 42° W 19:52:56 10° SSW
Cosmos 1607 4.3 19:44:07 10° SW 19:50:15 69° NW 19:56:25 10° NNE
Cosmos 1076 Rocket 3.5 19:46:29 10° N 19:50:46 60° ENE 19:55:03 10° SSE
FENGYUN 3A 4.0 19:46:41 10° SE 19:51:45 45° ENE 19:56:52 10° N
SJ-6B 3.5 19:48:42 10° S 19:52:36 58° W 19:56:37 10° NNW
Cosmos 1544 4.3 19:50:50 10° SE 19:53:44 22° E 19:56:39 10° NE
Cosmos 1346 4.4 19:52:04 10° NNE 19:54:25 21° ENE 19:54:55 20° E
Cosmos 1452 Rocket 3.6 19:50:39 10° NNW 19:55:51 56° ENE 20:01:00 10° SE
ERS-1 Rocket 4.5 19:54:39 15° E 19:56:33 18° ENE 19:59:53 10° NNE
Cosmos-2242 3.6 19:52:46 10° SSE 19:56:43 35° E 20:00:42 10° NNE
ATLAS 3B R/B 4.0 19:50:32 10° WSW 19:57:46 46° NW 20:04:48 10° NNE
Cosmos 2369 Rocket 3.5 19:54:36 10° N 19:59:01 23° NE 20:01:47 16° E
Helios 1B rocket 2.4 19:54:57 10° NNE 19:59:03 62° ESE 20:03:07 10° S
Cosmos 1758 3.7 19:56:37 10° SSE 20:00:26 41° E 20:04:19 10° NNE
Cosmos 192 4.4 19:57:09 10° S 20:02:00 58° ESE 20:06:53 10° NNE
SeaSat 1 3.4 19:58:09 10° NE 20:02:11 25° ESE 20:06:13 10° SSE
Cosmos 1603 4.4 19:58:38 10° SSE 20:03:34 31° ESE 20:08:32 10° NE
Cosmos 1408 Rocket 3.4 19:59:36 10° N 20:04:00 74° E 20:08:19 10° SSE
Resurs 01 Rocket 1.9 20:05:29 10° S 20:09:55 73° WSW 20:14:24 10° NNW
Cosmos 1943 Rocket 4.0 20:07:16 10° N 20:10:23 15° NE 20:12:21 13° ENE
NOSS 3-2 (A) 3.4 20:06:36 10° SSW 20:12:40 73° ESE 20:19:20 10° NE
FengYun 1-2 T 4.2 20:07:33 10° SSE 20:13:05 89° ENE 20:18:37 10° NNW
Cosmos 2333 Rocket 3.7 20:08:12 10° WSW 20:13:34 38° NW 20:18:57 10° NNE
Resurs 1-3 3.6 20:09:34 10° SSE 20:13:58 84° WSW 20:18:24 10° NNW
USA 238 DEB 4.4 20:10:58 10° WSW 20:17:53 57° NW 20:24:51 10° NNE
USA 238 4.4 20:11:03 10° SW 20:17:59 58° NW 20:24:57 10° NE
CZ-4B DEB 2.7 20:15:35 17° SSE 20:18:02 75° ENE 20:21:19 10° N
Cosmos 1420 Rocket 4.2 20:14:46 10° NNW 20:19:57 52° ENE 20:23:00 24° SE
ATLAS CENTAUR R/B 3.7 20:20:02 10° WNW 20:23:19 22° WSW 20:26:23 10° SSW
Cosmos 1939 Rocket 4.3 20:24:39 21° ENE 20:24:39 21° ENE 20:27:19 10° NNE
Meteor 1-21 Rocket 4.1 20:19:10 10° N 20:24:46 79° E 20:30:18 10° SSE
Cosmos 1743 Rocket 3.5 20:26:17 10° N 20:30:46 68° E 20:33:29 23° SSE
ALOS 2.3 20:27:03 10° S 20:31:44 81° WSW 20:36:26 10° NNW
Nadezhda 4 Rocket 3.9 20:25:29 10° N 20:31:49 75° E 20:38:02 10° SSE
Cosmos 1674 2.9 20:28:03 10° N 20:31:50 48° ENE 20:32:22 44° ESE
Cosmos 1269 Rocket 4.2 20:29:36 10° S 20:34:36 45° ESE 20:39:38 10° NNE
CZ-4B DEB 4.4 20:34:17 38° SSE 20:35:32 77° ENE 20:39:09 10° N
Cosmos 1092 Rocket 4.0 20:30:35 10° N 20:36:46 61° ENE 20:40:56 21° SSE
GP-B 3.4 20:34:36 10° NNE 20:38:52 43° E 20:39:11 43° E
Cosmos 1048 Rocket 4.2 20:36:30 10° S 20:41:31 45° ESE 20:46:30 10° NNE
Cosmos 2237 Rocket 4.2 20:37:15 10° WSW 20:42:09 29° NW 20:47:03 10° N
NOSS 3-2 (C) 3.5 20:43:31 10° SW 20:49:39 84° NW 20:56:27 10° NE
Envisat 3.3 20:50:02 42° E 20:50:30 43° ENE 20:55:18 10° N
ASTEX 1 3.4 20:45:55 10° N 20:50:52 84° W 20:55:45 10° S
CZ-4C R/B 3.9 20:46:21 10° W 20:51:23 33° NW 20:57:02 10° NNE
CENTAUR R/B 4.1 20:47:49 10° S 21:00:35 - NE 20:48:51 15° SSE
Cosmos 1634 Rocket 4.0 20:49:16 22° SSE 20:53:11 54° E 20:59:13 10° NNE
Cosmos 2026 Rocket 4.2 20:47:40 10° N 20:53:31 46° ENE 20:54:38 42° ESE
ATLAS 5 CENTAUR R/B 1.8 20:48:54 10° SW 20:53:43 89° NW 20:59:01 10° NE
CZ-2D R/B 4.1 20:52:08 19° S 20:54:40 50° W 20:58:29 10° NNW
Cosmos 1953 3.4 20:52:12 10° SSW 20:56:02 44° WNW 20:59:53 10° N
SL-16 R/B 3.5 20:55:06 10° SW 21:00:28 42° NW 21:05:53 10° NNE
USA 186 4.4 21:06:04 12° NW 21:06:04 12° NW 21:06:20 10° NW
YAOGAN 11 4.1 21:09:24 67° NNE 21:09:24 67° NNE 21:13:16 10° N
H-2A R/B 3.5 21:14:39 28° NNE 21:14:39 28° NNE 21:17:12 10° N
SJ-11-01 4.1 21:14:09 78° S 21:14:27 87° WSW 21:19:11 10° NNW
Cosmos 2195 Rocket 4.4 21:08:40 10° N 21:15:00 76° E 21:16:42 51° SSE
Cosmos 724 4.3 21:10:18 10° SW 21:16:15 81° NW 21:22:24 10° NNE
ARGOS 4.4 21:20:14 27° NE 21:20:14 27° NE 21:23:35 10° N
USA 215 3.7 21:14:23 11° NE 21:20:38 58° NNW 21:27:00 10° WSW
SPOT 5 4.1 21:26:40 27° NNE 21:26:40 27° NNE 21:28:51 10° N
Cosmos 1110 Rocket 4.3 21:26:29 10° NNW 21:31:01 59° NNE 21:31:01 59° NNE
Cosmos 1470 4.2 21:34:27 35° NW 21:34:27 35° NW 21:37:15 10° N
ERS-1 Rocket 3.1 21:34:40 67° WSW 21:34:48 67° WSW 21:39:50 10° NNW
Cosmos 1627 Rocket 4.5 21:29:25 10° N 21:35:36 78° W 21:36:58 56° SSW
SeaSat 1 3.2 21:35:08 10° NNE 21:39:56 51° NW 21:44:41 10° SW
Cosmos 2369 Rocket 2.3 21:37:58 10° NNW 21:43:35 70° WSW 21:43:35 70° WSW
Cosmos 2263 4.2 21:37:52 10° NNW 21:43:15 77° NNW 21:43:15 77° NNW
Cosmos 839 Rocket 4.2 21:40:42 10° NW 21:48:30 73° WSW 21:49:20 66° SSW
Cosmos 1943 Rocket 2.8 21:49:37 10° NNW 21:53:53 50° N 21:53:53 50° N
Cosmos 2279 Rocket 4.5 22:20:11 56° NW 22:20:11 56° NW 22:25:40 10° N
H-2A R/B 4.0 22:24:26 21° N 22:24:26 21° N 22:26:07 10° N
ATLAS 5 CENTAUR R/B 4.2 22:35:19 10° W 22:39:13 22° NNW 22:41:49 16° N
Terra 4.4 22:43:33 15° N 22:43:33 15° N 22:44:22 10° N
CENTAUR R/B 4.3 22:47:41 23° NNE 22:47:41 23° NNE 22:50:21 10° NE
